Helicity
93 93 93 96 99 97 102 101 104 96 91 96 104 95 99 108 111 144 213 252 279 259 181 179 193 195 202 182 166 154 205 186 181 158 159 172 148 126 137 150 122 114 119 161 161 179 133 132 154 161 177 251 279 312
80 92 113 117 118 115 112 112 112 115 111 104 109 108 108 121 119 127 183 202 285 251 179 276 217 195 157 162 172 159 143 109 144 189 179 181 180 196 160 154 149 154 158 156 152 163 144 155 202 218 322 342 312 352
92 100 98 107 134 138 132 128 126 126 120 113 111 106 109 122 123 127 206 212 278 305 291 235 213 196 157 143 144 159 167 168 169 160 150 153 161 169 173 155 157 162 121 173 161 133 113 138 220 212 300 405 359 288
80 93 110 96 101 111 110 118 129 123 122 122 114 102 106 123 110 117 210 221 243 318 275 189 300 219 203 180 150 153 161 201 197 186 166 171 160 126 191 195 201 194 121 118 150 114 138 128 175 260 355 362 299 244
88 108 116 95 92 95 93 103 106 113 121 115 109 112 100 105 115 139 220 208 268 240 169 235 243 244 192 189 205 182 147 174 191 159 136 148 114 97 99 134 174 198 197 205 170 105 136 154 218 330 338 265 244 250
99 101 96 94 97 102 98 93 91 91 106 105 82 96 112 105 106 195 192 194 249 264 194 160 237 289 303 237 223 211 160 143 157 111 92 91 129 84 100 82 106 65 89 70 138 177 229 289 306 291 251 240 239 183
85 89 93 85 88 90 86 89 94 91 93 111 84 91 109 123 167 220 234 185 300 347 220 249 248 263 222 200 219 208 162 176 144 119 105 109 141 173 184 168 208 198 103 162 238 318 342 326 292 259 253 268 225 201
70 74 71 76 75 82 86 75 76 89 94 112 102 96 90 88 131 203 182 46 288 359 156 194 258 270 237 273 225 147 159 205 183 182 221 166 135 169 162 182 90 53 132 201 219 258 270 378 326 249 267 225 214 185
87 70 60 40 57 51 76 78 88 103 111 118 106 85 131 155 180 212 185 33 328 335 256 237 279 313 252 224 170 150 164 155 178 186 215 171 199 202 181 148 91 148 155 160 307 337 382 350 277 240 209 200 192 176
91 83 73 67 72 88 97 71 124 108 114 129 152 184 182 229 152 307 229 244 287 409 353 341 348 330 273 301 254 201 148 130 95 125 177 224 152 167 164 192 146 218 346 498 486 362 373 296 255 211 175 165 160 184
73 78 84 81 89 119 92 124 98 164 171 240 197 246 252 266 376 355 256 303 393 294 404 365 374 454 354 294 245 154 127 97 91 72 147 104 69 127 137 126 182 387 422 301 233 287 270 310 281 228 190 182 189 190
71 79 69 102 103 115 99 105 120 200 253 205 246 330 494 307 248 223 287 293 387 393 308 380 469 443 322 318 205 162 127 100 104 107 135 90 23 27 90 98 208 344 312 269 251 279 284 300 223 213 197 191 188 163
88 86 108 93 74 105 103 143 115 166 181 406 326 426 390 322 208 205 331 214 410 378 358 475 524 412 387 300 239 158 101 116 149 150 165 88 48 -0 -43 49 181 286 369 353 325 323 313 218 207 216 197 196 183 165
62 119 99 75 62 103 119 145 178 297 432 248 310 273 287 342 215 325 279 358 405 369 351 447 561 416 340 291 190 154 155 143 93 97 30 49 3 -23 176 283 357 346 360 360 324 305 270 208 194 167 187 186 184 157
53 67 83 62 32 86 152 221 154 385 301 270 287 287 300 346 355 221 386 407 350 247 318 344 413 311 365 260 259 234 127 41 -42 -8 33 37 2 132 247 314 335 358 366 347 318 279 248 225 201 197 189 179 141 178
112 120 144 88 106 179 218 335 333 411 282 242 214 195 254 395 308 287 322 416 363 277 350 443 339 295 283 252 191 159 58 -3 31 9 10 -17 28 144 272 296 280 320 357 337 277 239 211 199 181 183 174 131 159 150
156 179 63 212 193 305 386 498 475 353 254 331 251 216 169 220 147 194 225 318 257 427 398 381 255 171 242 183 177 194 197 160 103 31 28 -11 44 144 191 276 352 358 343 289 256 204 173 172 198 186 143 137 137 137
193 220 225 250 344 409 530 409 294 232 254 285 233 202 216 134 125 157 191 317 360 367 384 290 285 259 205 128 117 62 38 86 91 79 109 156 144 176 211 254 330 305 287 223 207 207 188 179 143 99 132 138 143 124
187 190 248 369 379 428 346 345 351 361 406 326 212 147 182 207 163 155 244 318 339 388 358 323 221 190 127 59 35 97 101 95 151 170 211 190 167 162 200 299 307 267 220 196 190 167 138 107 92 111 121 126 108 101
186 214 228 260 370 273 345 310 287 312 350 347 282 197 183 172 168 171 203 322 354 300 218 173 131 86 30 95 118 82 95 185 240 216 196 155 181 224 238 274 221 211 214 189 165 166 136 103 96 108 112 104 97 99
271 279 219 213 246 223 194 283 216 176 206 248 276 281 254 207 202 205 184 230 248 179 139 132 125 148 159 109 90 116 105 112 138 176 158 150 211 228 232 176 197 200 201 176 167 108 96 85 101 110 112 84 83 99
326 214 212 253 247 251 190 235 167 188 180 203 206 170 147 160 154 157 184 205 167 159 176 155 143 113 101 112 114 108 108 156 83 229 337 276 266 176 130 143 168 155 146 137 115 96 76 103 122 114 92 99 108 120
217 218 183 151 90 100 116 196 149 145 91 119 177 143 122 119 128 155 133 114 118 117 137 158 132 131 93 79 71 25 79 156 212 182 169 165 162 102 118 110 123 177 136 78 90 105 119 125 123 110 112 120 120 122
191 129 89 59 20 28 89 79 96 72 54 66 83 45 3 39 91 43 -72 -85 -54 -10 -33 -78 -38 2 12 4 14 59 157 170 158 135 156 152 119 87 85 117 114 92 101 105 115 137 136 115 116 115 117 117 113 114
117 135 58 39 66 50 38 66 77 61 47 57 34 -10 -58 33 -39 -72 -113 -123 -108 -37 -5 6 25 54 97 136 112 105 88 111 139 156 106 89 166 165 126 108 97 79 107 170 144 134 117 115 109 116 114 106 110 106
45 53 36 40 62 45 28 29 30 59 113 105 92 78 107 37 20 -32 10 12 57 117 105 91 109 87 67 58 80 99 120 148 133 130 81 67 103 151 128 113 97 65 73 122 163 131 130 112 110 117 105 97 104 104
36 11 33 69 49 41 44 56 74 106 81 36 95 68 58 13 32 20 6 56 57 87 82 84 79 67 63 86 114 124 134 118 108 103 89 74 87 88 115 118 88 75 101 93 118 145 145 123 111 109 104 103 94 95
24 12 -10 43 38 37 -13 34 50 36 64 41 76 45 8 10 54 42 65 68 64 112 132 147 148 129 102 85 96 114 155 164 194 225 215 191 144 116 115 123 106 104 113 94 108 124 128 125 117 113 107 95 90 95
11 26 41 75 59 52 68 71 48 52 71 61 61 63 45 23 73 108 121 124 127 144 165 175 214 218 216 191 163 126 90 82 118 127 144 135 124 108 110 116 105 97 115 133 133 127 116 118 114 109 100 97 101 118
65 51 43 51 45 24 39 58 40 55 66 73 42 73 85 99 157 186 171 149 137 135 131 123 111 127 111 119 124 129 127 116 121 128 115 67 55 104 116 124 114 119 149 181 209 221 211 189 188 164 145 127 120 119
49 44 50 54 60 78 93 75 66 76 98 104 152 137 130 119 170 244 240 193 169 154 145 145 155 138 120 101 83 92 88 96 97 83 81 105 117 126 120 115 121 142 161 176 177 162 162 143 134 136 121 112 110 107
61 40 57 105 83 93 108 112 134 170 179 185 180 145 150 148 201 195 286 225 159 146 139 101 89 68 109 130 145 140 109 111 110 106 103 100 110 123 139 145 155 165 175 180 172 159 138 137 133 119 108 99 98 96
70 102 152 157 128 101 133 146 159 171 180 176 188 187 177 151 141 179 266 250 185 158 145 151 160 155 153 158 149 142 144 150 134 129 128 130 140 149 153 155 160 172 193 183 163 147 135 133 124 112 104 100 97 96
Wind_Speed
94 99 100 99 97 95 92 88 86 84 81 79 77 76 73 69 64 65 64 59 54 63 60 63 49 53 49 49 51 42 40 46 42 48 48 47 49 44 45 44 42 40 43 43 41 46 60 42 42 52 62 52 52 49
85 89 92 96 95 93 90 89 87 84 82 80 79 77 75 72 66 61 70 57 53 59 55 49 50 48 46 43 45 40 44 39 38 41 43 43 50 46 47 56 39 51 39 43 33 42 45 45 49 53 53 49 48 48
72 77 82 86 88 92 91 89 87 85 82 81 79 78 75 72 68 66 65 50 52 58 61 58 59 42 42 38 37 46 42 34 34 35 39 44 53 44 53 54 49 41 38 45 50 45 51 47 49 51 48 48 43 45
63 64 68 77 81 83 88 91 88 85 83 81 79 78 76 72 70 65 67 58 57 50 68 65 51 59 51 44 36 33 34 36 38 41 48 50 55 44 48 46 45 37 33 48 54 65 62 56 48 45 47 39 39 35
69 66 65 67 72 80 83 86 85 85 84 82 80 77 75 70 67 65 62 62 60 60 56 64 56 55 48 48 46 39 36 39 44 49 50 54 48 53 57 59 57 41 47 48 59 63 58 65 41 38 37 36 30 28
56 69 63 62 63 69 74 78 79 81 78 78 80 78 75 69 62 59 68 68 64 58 60 62 50 54 51 48 49 49 51 51 50 54 60 59 56 62 71 69 56 36 36 46 62 59 58 47 39 33 33 28 26 26
52 61 61 61 61 66 73 75 77 75 77 75 74 72 70 68 65 72 63 56 60 49 54 53 55 50 45 45 53 55 53 55 54 57 63 65 61 53 69 73 50 50 57 54 47 44 51 41 43 30 25 23 22 26
54 55 52 56 61 63 76 81 79 75 71 68 70 70 65 63 60 70 60 44 49 59 52 57 54 50 47 51 50 43 51 56 60 63 60 62 59 56 71 52 50 59 51 43 39 45 46 34 30 25 19 16 20 24
57 54 50 53 58 60 71 78 77 72 68 66 64 60 60 64 69 69 50 42 46 53 60 57 61 61 44 49 47 47 47 59 54 66 66 59 68 65 49 47 51 38 40 44 40 36 30 31 26 17 10 14 19 24
51 56 54 52 56 61 74 98 67 73 67 65 61 61 61 59 39 38 45 62 53 58 54 63 51 57 44 45 47 43 45 53 60 63 53 73 87 79 69 66 68 57 47 35 37 39 33 27 19 8 6 12 18 21
58 56 57 54 56 58 79 70 67 70 68 72 61 56 47 53 49 57 56 64 57 58 60 59 57 48 47 49 48 47 49 49 64 60 57 68 79 63 58 44 44 48 34 27 31 23 15 16 5 2 6 12 16 20
57 60 58 56 58 60 87 76 73 79 72 66 50 44 47 49 55 59 67 55 58 61 51 54 54 46 43 41 45 46 51 49 63 43 58 71 69 71 50 45 36 25 20 20 21 13 11 9 3 6 9 12 15 19
67 63 63 58 60 67 84 82 78 66 64 59 50 56 55 56 63 62 79 56 57 53 53 51 48 41 38 41 44 46 50 57 49 56 62 65 63 53 46 34 20 18 16 16 9 12 10 4 6 8 11 14 17 20
80 63 62 63 106 102 89 83 79 76 68 59 57 60 53 64 58 58 55 57 46 38 39 41 42 44 39 45 43 53 53 50 59 63 81 69 69 72 47 32 22 18 13 8 9 6 3 5 6 11 14 15 18 21
59 59 86 106 115 86 80 82 81 78 59 56 50 58 62 52 48 40 39 38 43 38 42 40 39 39 43 45 51 47 54 67 73 73 72 69 59 41 29 20 17 10 9 10 4 7 7 8 12 14 16 17 19 22
60 69 82 83 76 77 82 81 74 68 47 52 48 45 42 43 43 43 40 38 40 38 36 39 43 48 50 47 55 70 76 75 59 63 56 47 39 26 19 16 10 9 8 6 8 10 11 14 14 16 17 17 19 21
73 68 87 71 77 78 66 73 62 60 45 50 53 43 42 45 37 42 39 37 39 41 48 47 50 53 39 56 67 57 70 74 75 68 60 52 42 28 18 11 10 7 10 10 11 11 14 15 16 17 16 17 19 22
69 72 72 68 77 65 58 57 52 45 59 40 44 44 44 41 35 38 43 35 38 43 43 51 40 54 56 61 67 72 73 65 64 63 55 42 28 20 16 10 4 11 12 12 11 14 14 16 16 15 16 18 21 23
73 71 71 70 64 64 49 44 43 46 49 45 36 31 34 39 44 34 29 33 39 43 38 48 54 62 68 67 72 67 64 64 63 53 41 29 25 21 11 6 7 13 14 13 13 13 16 17 15 15 16 17 19 21
60 68 61 42 43 46 44 44 35 37 48 48 45 39 33 37 38 35 35 43 43 48 58 65 66 61 62 61 53 54 50 40 33 37 36 30 25 15 9 9 14 14 10 7 6 13 15 14 14 14 15 16 18 21
48 52 52 41 34 29 35 42 44 40 43 44 39 40 36 35 37 43 48 52 54 61 67 63 63 57 53 51 49 40 36 28 25 37 45 35 25 16 11 14 14 11 9 8 12 15 15 14 14 14 14 15 19 23
44 40 46 33 33 32 31 32 36 36 39 42 42 39 40 44 43 42 37 52 59 60 55 56 57 56 55 52 45 37 28 30 43 37 29 14 10 17 20 18 16 10 7 11 15 16 14 13 13 13 14 16 20 23
42 43 40 39 42 37 41 41 38 34 31 35 41 39 40 40 46 40 50 57 59 54 50 51 50 49 49 47 48 52 49 45 39 29 15 13 15 17 16 13 10 13 13 13 13 14 13 12 13 13 15 17 20 22
34 43 47 49 47 49 48 46 46 48 48 51 52 53 55 55 53 67 71 71 67 60 64 64 62 60 57 56 58 52 44 33 20 13 14 19 19 14 10 9 6 6 12 16 14 12 12 12 12 12 13 15 18 21
46 44 46 48 46 50 50 52 51 50 55 57 61 61 60 53 63 67 67 65 67 67 65 62 58 57 58 53 46 37 30 21 17 18 17 13 13 7 3 3 4 7 13 14 11 11 11 11 10 10 12 14 17 19
49 44 48 48 51 50 53 56 57 54 52 54 56 54 54 59 61 58 61 63 64 67 67 64 58 51 45 40 33 31 27 22 16 13 10 10 12 14 14 14 12 7 9 10 11 11 10 10 9 9 11 13 16 19
46 42 44 43 46 48 47 47 49 52 54 55 58 58 57 56 58 52 47 50 55 57 55 49 45 41 36 26 20 18 16 13 10 4 5 7 7 9 13 12 9 6 10 9 9 10 10 8 7 8 11 14 15 17
39 40 49 48 47 45 49 49 49 50 51 50 55 55 55 50 49 44 44 45 45 36 34 29 26 23 17 14 11 9 6 7 10 13 11 10 11 10 10 12 13 9 9 8 9 10 10 9 8 9 11 13 16 17
33 36 38 40 41 39 39 44 44 42 44 50 52 50 46 39 34 39 37 34 30 26 29 27 28 23 16 12 10 4 13 19 21 14 5 5 6 10 13 12 12 10 9 9 11 12 12 13 13 13 14 16 19 22
32 31 33 33 36 37 37 38 39 38 36 40 41 43 38 31 24 27 29 31 34 35 32 18 17 20 23 21 16 6 6 7 7 9 8 7 5 6 5 8 9 10 10 11 13 16 19 20 21 22 20 21 22 24
34 33 33 33 37 35 32 26 20 27 36 31 26 31 34 33 22 16 22 33 31 22 13 12 11 8 12 13 14 13 6 10 13 14 16 11 8 5 4 6 8 10 10 10 11 13 15 17 19 20 20 21 22 24
32 33 38 41 42 34 29 30 32 33 32 28 28 31 30 26 25 25 26 32 33 29 25 11 7 7 8 4 5 13 6 9 10 14 16 14 11 8 6 8 9 10 10 11 13 14 17 19 21 22 23 23 24 26
30 28 21 23 29 31 30 29 29 30 27 29 26 26 26 26 23 31 31 28 33 28 16 14 8 4 3 5 9 12 7 9 12 15 16 16 14 10 10 11 11 11 11 13 15 17 19 22 24 24 25 26 27 29
Wind_Direction
240 238 237 236 235 235 234 234 234 235 235 234 234 234 235 234 232 233 245 239 242 252 257 254 266 265 263 260 260 268 268 270 272 267 277 281 285 289 294 300 304 304 307 309 312 313 318 343 345 335 334 336 337 345
239 238 236 235 234 233 233 232 233 233 234 233 232 232 233 232 231 230 243 242 240 252 259 261 262 265 268 268 262 264 272 276 268 272 277 285 285 290 292 295 302 299 298 308 310 319 327 332 332 331 337 333 335 338
236 235 234 233 232 231 231 231 231 231 231 231 231 231 231 230 229 228 236 239 236 247 256 255 250 260 267 271 274 263 270 278 279 285 284 285 284 293 289 291 293 300 306 305 312 321 320 323 330 325 333 336 337 340
227 223 228 229 229 228 229 229 228 229 229 228 228 229 228 227 228 227 234 235 236 250 249 255 260 256 260 268 276 280 273 281 284 285 281 281 284 291 290 294 296 306 314 310 308 311 314 316 322 324 333 340 341 350
232 225 225 223 225 227 227 226 225 226 226 225 225 225 225 225 225 228 235 237 232 242 256 254 257 259 262 260 263 268 272 277 280 278 278 279 287 289 290 291 289 293 297 302 307 313 315 319 322 329 334 338 349 355
223 228 222 215 216 221 221 221 221 222 221 221 223 221 221 220 219 223 238 239 229 239 253 256 262 255 257 259 259 264 267 272 274 277 278 281 284 285 284 286 295 293 299 302 305 314 317 325 331 334 335 345 352 356
214 222 219 212 210 216 219 219 220 218 219 217 218 216 216 217 218 221 240 245 217 231 249 257 256 256 254 260 263 264 267 270 272 275 276 279 282 286 284 280 288 294 302 306 311 317 319 325 327 333 345 356 3 6
206 213 208 206 209 210 219 220 219 215 212 209 212 214 213 213 221 228 242 234 206 228 248 250 256 251 250 255 259 269 267 268 271 272 275 277 281 282 281 287 290 292 298 306 307 313 320 330 336 339 352 2 2 4
213 197 199 198 198 201 213 214 214 211 203 201 203 205 212 221 225 225 226 205 221 237 238 248 244 252 250 256 262 267 271 269 275 270 270 273 271 271 278 286 290 292 295 305 310 318 327 327 329 335 350 357 4 1
194 199 195 199 201 202 211 208 208 200 191 187 193 209 219 214 189 185 217 222 235 240 243 246 245 249 247 252 258 264 271 271 274 274 276 270 270 274 275 277 283 287 288 290 300 307 316 320 318 315 347 11 6 13
184 190 192 188 196 200 208 185 183 174 177 195 205 212 213 164 207 222 229 227 234 241 236 239 241 235 249 247 256 263 269 273 274 275 270 276 276 282 282 268 267 278 272 269 297 301 311 332 306 349 33 15 25 24
184 185 182 181 189 192 197 192 172 185 195 197 195 192 190 211 221 226 221 233 234 233 231 227 229 236 245 252 260 260 267 271 272 279 276 277 282 281 285 282 278 271 264 276 296 301 318 335 64 75 42 48 41 36
178 171 178 181 181 190 193 185 179 181 172 187 203 201 219 216 221 225 217 235 226 225 231 221 220 236 248 256 261 263 266 268 276 274 273 275 281 283 282 289 283 279 280 284 291 311 325 37 65 63 68 59 50 42
188 173 174 179 188 188 189 182 172 179 188 201 205 211 221 219 228 230 219 221 231 221 195 195 218 242 251 249 262 259 264 268 270 268 259 272 269 261 284 290 287 277 267 232 272 306 114 106 68 76 73 69 55 40
158 167 183 181 178 187 175 169 179 188 199 205 211 220 224 225 223 223 212 212 221 192 191 209 233 249 245 253 256 259 257 252 245 256 264 258 272 287 291 293 288 265 229 243 250 149 132 104 97 81 79 69 50 40
164 170 181 181 174 159 163 174 187 194 207 213 221 222 219 209 215 218 213 204 199 187 204 226 238 242 247 253 251 244 238 241 261 255 263 280 292 303 311 300 289 257 233 188 155 141 120 111 101 89 79 62 50 46
172 182 175 150 155 157 168 178 190 200 211 218 221 221 223 217 204 214 207 202 181 186 214 236 238 244 252 251 247 256 253 247 244 257 276 284 295 309 317 302 284 230 168 157 145 123 111 101 88 86 77 59 53 41
162 159 145 150 162 171 180 195 199 209 209 212 209 215 222 217 207 211 220 186 204 212 227 241 247 243 245 246 244 240 238 257 266 271 280 293 303 303 294 284 259 166 163 155 131 114 108 108 104 91 70 65 48 39
159 156 158 168 177 181 193 200 208 204 207 212 210 221 222 222 226 226 208 205 231 229 238 244 248 246 246 249 245 252 260 263 266 277 297 307 294 285 280 284 176 167 155 139 125 115 113 111 98 84 73 62 44 38
149 161 169 174 186 194 201 207 216 210 210 216 218 222 227 228 228 228 216 230 233 236 244 243 244 250 252 255 266 270 277 282 290 292 289 281 290 280 260 185 180 159 148 125 92 99 100 87 83 82 68 56 44 34
160 170 177 189 195 206 211 211 215 220 217 221 222 231 237 238 235 234 234 235 241 244 244 249 253 259 265 270 278 286 290 295 304 285 264 271 273 254 209 193 162 151 143 124 115 113 111 103 92 78 64 54 39 31
177 182 186 198 204 212 215 224 218 226 234 228 232 240 242 242 243 245 246 246 252 254 258 262 263 265 267 275 280 286 290 284 267 269 275 264 216 171 169 159 146 148 135 122 119 119 110 92 79 68 63 46 36 32
179 186 193 202 200 208 207 213 222 230 237 234 236 243 249 251 247 247 254 255 255 259 262 263 265 268 268 268 263 252 253 256 267 271 252 215 184 172 157 151 146 130 121 114 108 107 96 82 80 72 54 41 34 29
198 194 192 195 200 198 203 209 214 216 218 218 223 226 228 233 238 229 226 227 233 242 239 235 232 231 234 237 240 247 255 252 243 222 193 158 152 161 155 133 120 102 108 107 104 89 80 84 83 69 52 38 30 24
189 195 197 196 203 202 208 209 213 218 219 221 221 221 222 234 219 216 218 220 217 215 216 219 222 226 228 232 236 235 228 215 188 175 199 176 148 151 126 58 49 80 103 104 95 93 88 83 77 63 47 32 25 22
187 193 200 204 202 207 206 203 206 209 211 209 208 208 211 201 201 204 206 203 205 204 203 207 213 219 219 218 210 207 210 210 187 164 188 150 133 127 121 119 114 92 92 97 103 99 95 89 77 59 37 28 24 19
201 205 211 216 210 207 208 212 213 204 201 198 197 195 195 197 200 206 211 211 204 205 208 211 209 206 201 196 199 207 208 208 214 197 120 101 87 95 110 111 114 67 101 97 96 95 96 89 71 50 32 23 20 17
214 216 198 201 202 205 198 201 204 202 199 200 193 193 191 195 194 206 211 210 206 204 202 205 206 200 187 187 177 147 153 117 94 86 67 20 2 1 354 354 359 47 89 89 84 65 63 60 51 39 26 18 15 14
209 208 206 201 202 210 213 208 207 209 206 199 197 198 198 203 214 207 206 205 203 196 196 196 201 199 198 204 215 175 106 109 112 108 80 47 32 334 331 349 8 30 50 49 40 43 45 38 35 29 24 18 12 10
208 210 203 201 196 196 199 200 198 202 205 202 201 196 197 207 224 216 211 208 206 206 207 196 136 127 120 116 112 97 315 337 35 54 78 93 83 14 21 13 22 28 31 36 36 30 27 23 22 17 17 14 10 7
209 206 204 200 190 191 196 204 210 207 202 202 201 200 202 205 218 232 225 218 215 214 195 184 200 188 131 124 117 110 82 328 338 355 353 20 20 38 43 29 23 27 29 34 34 27 22 16 12 11 9 7 5 2
221 217 203 197 193 206 212 209 204 198 202 209 215 215 216 220 221 229 239 227 224 228 235 226 167 160 262 291 322 321 16 70 33 2 13 26 16 8 356 350 359 6 11 12 11 10 7 5 4 4 3 2 0 358
223 223 227 226 222 222 221 219 218 219 228 227 232 234 237 242 249 239 245 251 240 244 250 258 264 275 298 319 333 347 25 32 28 10 360 7 18 18 358 346 347 352 358 0 0 360 359 359 359 360 359 359 357 356